[[{"header":{"parameterUnit":"m.s-1","parameterCategory":1,"la1":30.2991,"la2":30.254,"lo1":-89.0895,"lo2":-89.0444,"dy":0.0017,"dx":0.0017,"nx":28,"ny":28,"refTime":"2023-07-27T21:00:00:Z","depth":0,"parameterNumber":2,"parameterNumberName":"U-component_of_WINDS"},"data":[0,0,0,0,0,0,0,0,0,0,0,0,0,0,0,0,0,0,0,0,0,0,0,0,0,0,0,0,0,0,0,0,0,0,0,0,0,0,0,0,0,0,0,0,0,0,0,0,0,0,0,0,0,0,0,0,0,0,1.331,1.3311,0,1.3432,1.3434,1.3435,1.3484,1.3484,1.3484,1.3484,1.3606,1.3609,1.3613,0,0,0,0,0,0,0,0,0,0,0,0,0,1.3115,1.3118,1.331,1.3311,1.3313,1.3432,1.3434,1.3435,1.3484,1.3484,1.3484,1.3483,1.3605,1.3609,1.3613,0,0,0,0,0,0,0,0,0,0,0,0,0,1.3214,1.3119,1.3309,1.3352,1.3357,1.3432,1.3434,1.3436,1.3485,1.3484,1.3484,1.3483,1.3603,1.3608,1.3614,1.3654,0,0,1.363,1.3632,0,0,0,0,0,0,0,0,1.3209,1.3221,1.3344,1.3349,1.3355,1.3443,1.341,1.3509,1.3485,1.3436,1.3484,1.3483,1.3552,1.3561,1.3585,1.366,1.3665,1.363,1.3633,1.3636,1.3637,0,0,0,0,0,0,0,1.3202,1.3216,1.3358,1.3346,1.3352,1.3363,1.3377,1.3429,1.3494,1.344,1.3444,1.3458,1.3554,1.358,1.3588,1.3667,1.363,1.3635,1.3638,1.364,1.3782,1.3782,0,0,0,0,0,0,1.3188,1.321,1.3354,1.3362,1.3279,1.3367,1.3383,1.3415,1.3494,1.3506,1.3458,1.346,1.3571,1.3582,1.3593,1.3646,1.3635,1.364,1.3643,1.3781,1.3782,1.3782,0,0,0,0,0,0,1.3184,1.3201,1.3349,1.3287,1.3307,1.3371,1.3407,1.3417,1.3443,1.3508,1.3519,1.3472,1.3571,1.3585,1.3639,1.3651,1.3643,1.3648,1.378,1.3781,1.3782,1.3752,0,0,0,0,0,0,1.3178,1.3199,1.3216,1.3287,1.331,1.3394,1.3408,1.342,1.3452,1.3455,1.3524,1.3535,1.3572,1.3631,1.3644,1.3658,1.3652,1.378,1.3781,1.3782,1.3752,1.3752,1.3751,0,0,0,0,0,1.3171,1.3202,1.3216,1.3233,1.3333,1.3395,1.3408,1.3451,1.3453,1.347,1.3512,1.3533,1.3647,1.3636,1.3651,1.3667,1.3779,1.378,1.3782,1.3752,1.3752,1.3751,0,0,0,0,0,0,1.3129,1.3212,1.3229,1.3284,1.3332,1.3403,1.3426,1.3449,1.3496,1.3497,1.3547,1.3562,1.3611,1.3644,1.363,1.371,1.3715,1.3719,1.3687,1.3687,1.3686,1.3677,1.3656,0,0,0,0,0,1.3126,1.3171,1.324,1.3282,1.3305,1.3361,1.339,1.3419,1.347,1.349,1.3536,1.3584,1.3631,1.3661,1.3707,1.3757,1.3772,1.3775,1.3775,1.3774,1.3777,1.3805,1.3807,1.3787,1.3787,1.3787,0,0,1.312,1.3171,1.3196,1.3275,1.3316,1.3359,1.3378,1.3424,1.3457,1.3497,1.3551,1.3586,1.3643,1.3694,1.372,1.3723,1.3786,1.3776,1.3775,1.3778,1.3807,1.3809,1.3811,1.3788,1.3788,1.3787,0,0,1.3133,1.3176,1.3216,1.3256,1.3318,1.3355,1.3364,1.3432,1.3457,1.3512,1.3544,1.3583,1.3662,1.3702,1.3732,1.3759,1.378,1.3772,1.377,1.3797,1.3799,1.38,1.381,1.3813,1.3776,1.3775,1.3775,0,1.3118,1.3187,1.3233,1.3277,1.331,1.335,1.339,1.3427,1.35,1.3521,1.3525,1.3626,1.3667,1.3728,1.3735,1.3758,1.377,1.3765,1.3795,1.3797,1.3799,1.3809,1.3812,1.3774,1.3774,1.3774,1.3775,0,1.3165,1.3212,1.3236,1.3307,1.3343,1.3385,1.3436,1.3467,1.3492,1.3529,1.3584,1.3634,1.3692,1.3709,1.3733,1.3773,1.3774,1.3786,1.3791,1.3799,1.3809,1.3813,1.3772,1.3773,1.3773,1.3773,0,0,1.3154,1.3251,1.3259,1.3291,1.3362,1.3399,1.3442,1.3499,1.3524,1.3573,1.361,1.3677,1.3688,1.3722,1.3752,1.3776,1.3793,1.3785,1.3787,1.3784,1.384,1.3831,1.3834,1.3808,1.3809,1.3809,1.3835,0,1.3176,1.3256,1.3299,1.3361,1.3404,1.3443,1.348,1.3527,1.3562,1.3603,1.3641,1.3687,1.3699,1.372,1.3745,1.3786,1.3805,1.3785,1.3842,1.3843,1.3826,1.3839,1.383,1.3852,1.3839,1.384,1.384,0,1.3212,1.3262,1.3328,1.3395,1.3414,1.3447,1.3503,1.3543,1.3596,1.362,1.3658,1.3687,1.3733,1.3735,1.3798,1.3783,1.3809,1.3832,1.3834,1.3841,1.3842,1.3846,1.386,1.3863,1.3847,1.3846,1.3846,0,1.3198,1.3281,1.3332,1.3358,1.3437,1.3459,1.3492,1.3546,1.3577,1.3626,1.3647,1.3699,1.3728,1.3767,1.3809,1.3807,1.3868,1.3874,1.3888,1.3887,1.39,1.3898,1.3917,1.3916,1.3916,1.3916,1.3916,0,1.3218,1.3257,1.3326,1.3357,1.3402,1.345,1.3492,1.3528,1.3575,1.3613,1.3649,1.3683,1.3737,1.3778,1.3811,1.3858,1.3871,1.389,1.3899,1.3887,1.3885,1.3905,1.3904,1.3917,1.3917,1.3916,1.3916,0,1.3209,1.3257,1.3315,1.3384,1.3403,1.3432,1.3491,1.3522,1.3559,1.3607,1.362,1.3677,1.3727,1.3774,1.384,1.3862,1.3909,1.392,1.3892,1.3896,1.3908,1.3906,1.3941,1.3948,1.3941,1.3941,1.3942,0,1.3218,1.325,1.3323,1.3351,1.3385,1.343,1.3463,1.3511,1.3543,1.3607,1.363,1.3682,1.3727,1.3805,1.3852,1.3902,1.3914,1.3923,1.3922,1.391,1.3914,1.3912,1.3915,1.3922,1.3922,1.3922,1.3922,0,1.323,1.3253,1.3299,1.3354,1.3393,1.3438,1.3484,1.3505,1.3562,1.3596,1.3649,1.3683,1.3751,1.3803,1.3859,1.3892,1.3916,1.3922,1.3928,1.3916,1.3899,1.3908,1.389,1.3921,1.3921,1.3921,1.3921,1.3921,1.3231,1.326,1.3317,1.3367,1.3408,1.345,1.3483,1.3524,1.3569,1.3629,1.3654,1.3706,1.3759,1.3836,1.3869,1.391,1.3915,1.3924,1.3926,1.3928,1.3926,1.3892,1.3921,1.3921,1.3921,1.3921,1.3921,0,1.3245,1.3283,1.3329,1.3393,1.3433,1.3453,1.3505,1.3537,1.3583,1.363,1.3674,1.3734,1.3784,1.3835,1.3887,1.391,1.3923,1.3923,1.3921,1.3928,1.3918,1.3908,1.3912,1.3912,1.3912,1.3912,1.3912,1.3912,1.3256,1.3307,1.3336,1.3407,1.3445,1.3498,1.3526,1.3565,1.3603,1.3668,1.371,1.3744,1.3792,1.3849,1.3895,1.3909,1.3926,1.3923,1.3939,1.3929,1.3929,1.393,1.392,1.3927,1.3927,1.3947,1.3947,1.3947]},{"header":{"parameterUnit":"m.s-1","parameterCategory":1,"la1":30.2991,"la2":30.254,"lo1":-89.0895,"lo2":-89.0444,"dy":0.0017,"dx":0.0017,"nx":28,"ny":28,"refTime":"2023-07-27T21:00:00:Z","depth":0,"parameterNumber":3,"parameterNumberName":"V-component_of_WINDS"},"data":[0,0,0,0,0,0,0,0,0,0,0,0,0,0,0,0,0,0,0,0,0,0,0,0,0,0,0,0,0,0,0,0,0,0,0,0,0,0,0,0,0,0,0,0,0,0,0,0,0,0,0,0,0,0,0,0,0,0,3.2836,3.2836,0,3.2794,3.2794,3.2793,3.2764,3.2764,3.2764,3.2763,3.2716,3.2715,3.2714,0,0,0,0,0,0,0,0,0,0,0,0,0,3.2888,3.2887,3.2836,3.2836,3.2835,3.2794,3.2794,3.2793,3.2764,3.2764,3.2764,3.2763,3.2717,3.2716,3.2714,0,0,0,0,0,0,0,0,0,0,0,0,0,3.2857,3.2887,3.2836,3.2816,3.2814,3.2794,3.2793,3.2793,3.2764,3.2764,3.2763,3.2763,3.2717,3.2716,3.2714,3.2711,0,0,3.2709,3.2709,0,0,0,0,0,0,0,0,3.2859,3.2855,3.2819,3.2817,3.2815,3.2784,3.2794,3.2765,3.2764,3.2783,3.2763,3.2763,3.2739,3.2736,3.2728,3.2708,3.2706,3.2709,3.2708,3.2707,3.2707,0,0,0,0,0,0,0,3.2861,3.2857,3.2819,3.2819,3.2816,3.2807,3.2803,3.2789,3.2763,3.2781,3.2779,3.2775,3.2738,3.273,3.2727,3.2706,3.2709,3.2708,3.2707,3.2706,3.2679,3.2679,0,0,0,0,0,0,3.2867,3.2859,3.2821,3.2818,3.2837,3.2807,3.2802,3.2794,3.2763,3.2758,3.2775,3.2773,3.2733,3.2729,3.2725,3.2718,3.2707,3.2706,3.2705,3.2679,3.2679,3.268,0,0,0,0,0,0,3.2868,3.2864,3.2822,3.2838,3.2832,3.2806,3.2798,3.2793,3.2786,3.2758,3.2753,3.2772,3.2732,3.2727,3.2714,3.2716,3.2705,3.2704,3.2679,3.2679,3.2679,3.2705,0,0,0,0,0,0,3.287,3.2865,3.2864,3.2838,3.2831,3.2814,3.2798,3.2793,3.2783,3.2781,3.2754,3.2749,3.2732,3.2717,3.2713,3.2714,3.2703,3.2678,3.2679,3.2679,3.2704,3.2706,3.2708,0,0,0,0,0,3.2872,3.2872,3.2864,3.286,3.283,3.2814,3.281,3.279,3.2784,3.2782,3.2765,3.275,3.2717,3.2716,3.2711,3.2711,3.2678,3.2679,3.2679,3.2703,3.2705,3.2708,0,0,0,0,0,0,3.2898,3.2868,3.2859,3.2851,3.2836,3.2809,3.2807,3.2794,3.2779,3.2777,3.2752,3.2746,3.2736,3.2722,3.2722,3.2706,3.2696,3.2695,3.2715,3.2718,3.272,3.2723,3.2701,0,0,0,0,0,3.2903,3.2893,3.2868,3.2863,3.2856,3.2833,3.2825,3.2811,3.2793,3.2786,3.2767,3.2749,3.2734,3.2725,3.271,3.2702,3.2694,3.2699,3.2701,3.2703,3.2703,3.2696,3.2698,3.2681,3.2681,3.2681,0,0,3.2912,3.2895,3.2891,3.2868,3.2854,3.2843,3.2827,3.2817,3.2808,3.2784,3.2771,3.2756,3.2734,3.2723,3.2718,3.2712,3.2706,3.2704,3.2706,3.2704,3.2697,3.2699,3.27,3.2682,3.2682,3.2681,0,0,3.2925,3.2912,3.2906,3.2893,3.2872,3.2857,3.2855,3.2831,3.2821,3.2807,3.2789,3.2777,3.2753,3.2738,3.2727,3.2733,3.2719,3.2728,3.2739,3.2733,3.2734,3.2735,3.2737,3.2738,3.2728,3.2728,3.2728,0,3.2939,3.2924,3.2905,3.2895,3.2885,3.2864,3.2857,3.2845,3.282,3.2813,3.2807,3.2775,3.2759,3.2744,3.2745,3.2737,3.2734,3.2731,3.2736,3.2737,3.2738,3.2738,3.2739,3.273,3.273,3.2729,3.2729,0,3.2942,3.2932,3.293,3.2907,3.2897,3.2889,3.2867,3.2859,3.2846,3.2831,3.2817,3.2796,3.2776,3.2772,3.2759,3.2754,3.2751,3.2741,3.273,3.2741,3.2741,3.2741,3.2732,3.2731,3.2731,3.273,0,0,3.297,3.2937,3.2937,3.2926,3.2901,3.2892,3.2883,3.2864,3.2857,3.2841,3.2831,3.281,3.2801,3.2788,3.2773,3.2768,3.2773,3.2758,3.2757,3.2761,3.2766,3.2773,3.2774,3.2764,3.2764,3.2764,3.2767,0,3.2978,3.2962,3.2944,3.2933,3.2922,3.2901,3.2893,3.2876,3.2861,3.2849,3.2832,3.2818,3.2806,3.2799,3.2792,3.2774,3.2773,3.2773,3.2753,3.2753,3.2759,3.2774,3.2782,3.2787,3.2767,3.2767,3.2767,0,3.2986,3.2971,3.296,3.2936,3.2931,3.2924,3.2905,3.2894,3.2874,3.2863,3.285,3.2834,3.2821,3.2812,3.2793,3.2793,3.2784,3.2773,3.2773,3.277,3.2761,3.2771,3.2788,3.2788,3.2768,3.2768,3.2767,0,3.3007,3.2984,3.2974,3.2965,3.2937,3.2933,3.292,3.29,3.289,3.2873,3.2866,3.2848,3.2837,3.2823,3.2801,3.2797,3.2785,3.2774,3.2774,3.2775,3.2772,3.2773,3.2787,3.2767,3.2767,3.2767,3.2767,0,3.3018,3.3011,3.2983,3.2977,3.2968,3.2947,3.2939,3.2924,3.2906,3.2896,3.2876,3.2866,3.2839,3.2826,3.2809,3.2795,3.2791,3.2781,3.2777,3.2783,3.2784,3.2776,3.2775,3.2767,3.2767,3.2767,3.2767,0,3.3039,3.302,3.3008,3.2982,3.2976,3.2971,3.2948,3.294,3.2925,3.2911,3.2907,3.2882,3.2865,3.2842,3.2818,3.2806,3.2795,3.2788,3.2802,3.2799,3.2801,3.2801,3.281,3.281,3.2791,3.2791,3.2791,0,3.3047,3.3042,3.3016,3.3008,3.2997,3.2985,3.2975,3.2953,3.2943,3.2919,3.2914,3.2896,3.288,3.2854,3.2832,3.2813,3.2805,3.281,3.2802,3.2808,3.2804,3.2805,3.2804,3.2812,3.2812,3.2812,3.2812,0,3.3063,3.3054,3.3041,3.3025,3.3013,3.2999,3.2983,3.2978,3.2952,3.2941,3.2925,3.2913,3.2888,3.287,3.2848,3.2833,3.2818,3.2815,3.2814,3.282,3.2828,3.2823,3.2807,3.2815,3.2815,3.2815,3.2814,3.2814,3.3078,3.3072,3.3053,3.3039,3.3025,3.3011,3.3003,3.2986,3.2972,3.2951,3.2939,3.2922,3.2901,3.287,3.2856,3.2842,3.2836,3.2834,3.2834,3.2834,3.2836,3.2831,3.2837,3.2837,3.2837,3.2837,3.2837,0,3.3093,3.3079,3.3067,3.3046,3.3035,3.3023,3.3005,3.2995,3.2982,3.2964,3.2949,3.2929,3.2911,3.2888,3.2868,3.286,3.2853,3.2856,3.2856,3.2853,3.2842,3.2845,3.2862,3.2862,3.2862,3.2862,3.2862,3.2862,3.3099,3.3088,3.3077,3.3058,3.3045,3.3029,3.302,3.3006,3.2992,3.2971,3.2956,3.2942,3.2921,3.29,3.2882,3.2875,3.2869,3.2874,3.2865,3.2856,3.2853,3.2851,3.2854,3.2872,3.2872,3.2876,3.2876,3.2876]}]]